Flag Weather past 2 weeks in Bonn, North Rhine-Westphalia, Germany

Now
42 °F

Fog.


Feels Like: 39 °F
Forecast: 39 / 45 °F
Wind: 5 mph from East

Location: Bonn-Hangelar

Current Time: Nov 26, 2014 at 5:19:36 PM

Latest Report: Nov 26, 2014 at 4:00 PM


Visibility: 4 mi

Pressure: 29.91 "Hg

Humidity: 99%

Dew point: 42 °F

Location of BonnLocation

Historic Weather in Bonn — Graph

°F

Bonn temperature yesterday

Maximum temperature yesterday: 44 °F (at 3:00 PM)
Minimum temperature yesterday: 33 °F (at 8:00 AM)
Average temperature yesterday: 38 °F

Past Weeks' High & Low Weather Summary

 TemperatureHumidityPressure
High61 °F (Nov 22, 3:00 PM)100% (Nov 15, 4:00 AM)30.36 "Hg (Nov 15, 4:00 AM)
Low33 °F (Nov 25, 8:00 AM)58% (Nov 13, 3:00 PM)29.50 "Hg (Nov 16, 4:00 PM)
Average46 °F90%29.93 "Hg
* Reported Nov 11 4:00 PM — Nov 26 4:00 PM, Bonn, Weather by CustomWeather, © 2014

Note: Actual official high and low records may vary slightly from our data, if they occured in-between our weather recording intervals... More about our weather records

Advertising

Bonn weather history for previous 24 hours

 ConditionsComfort  
Time TempWeatherWind HumidityBarometerVisibility
4:00 PM
Nov 26
42 °FFog.5 mph99%29.91 "Hg4 mi
3:00 PM42 °FPassing clouds.6 mph99%29.92 "Hg25 mi
2:00 PM43 °FRain. Low clouds.3 mph97%29.93 "Hg2 mi
1:00 PM43 °FLight rain. Overcast.3 mph95%29.94 "Hg4 mi
12:00 PM43 °FLight rain. Overcast.3 mph91%29.95 "Hg5 mi
11:00 AM42 °FOvercast.3 mph93%29.97 "Hg5 mi
10:00 AM41 °FOvercast.3 mph96%29.97 "Hg5 mi
9:00 AM40 °FFog.3 mph96%29.98 "Hg4 mi
8:00 AM39 °FOvercast.5 mph97%29.98 "Hg5 mi
7:00 AM39 °FOvercast.3 mph98%29.98 "Hg6 mi
6:00 AM39 °FOvercast.5 mph99%29.99 "Hg7 mi
5:00 AM38 °FFog.5 mph99%30.01 "Hg2 mi
4:00 AM38 °FFog.5 mph99%30.02 "Hg2 mi
3:00 AM39 °FFog.3 mph97%30.04 "Hg3 mi
2:00 AM39 °FFog.3 mph97%30.06 "Hg4 mi
1:00 AM38 °FFog.3 mph97%30.07 "Hg4 mi
12:00 AM37 °FFog.5 mph96%30.09 "Hg4 mi
11:00 PM
Nov 25
38 °FOvercast.5 mph91%30.11 "Hg6 mi
10:00 PM39 °FOvercast.8 mph89%30.10 "Hg8 mi
9:00 PM40 °FPassing clouds.8 mph86%30.12 "Hg25 mi
8:00 PM41 °FPassing clouds.9 mph84%30.12 "Hg25 mi
7:00 PM42 °FPassing clouds.9 mph78%30.14 "Hg25 mi
6:00 PM41 °FOvercast.8 mph78%30.16 "Hg25 mi
5:00 PM42 °FOvercast.9 mph82%30.16 "Hg19 mi
Weather by CustomWeather, © 2014

See weather overviewHow to use our weather pages